Zurück zum Katalog

JCSAT 15

AktivKommunikationGEO
NORAD 41903·PAYLOAD·🇯🇵 Japan

Gestartet Dec 21, 2016 von Guiana Space Centre

Loading…

TLE

AktuellSource: Space-Track

Epoche: Sep 14, 2026, 14:19 UTC

1 41903U 16082A   26257.59694110 -.00000359  00000-0  00000-0 0  9999
2 41903   0.0183 155.4421 0000605  15.4771 147.6262  1.00271519 35652

Verfolge JCSAT 15 in Echtzeit mit AllMySat

Download on the App Store